Weather Roundup
Issued by NWS Springfield, MO

Home | Current Version | Previous Version | Text Only | Print | Product List | Glossary On
Versions: 1 2 3 4 5 6 7 8 9 10 11 12 13 14 15 16 17 18 19 20 21 22 23 24 25 26 27 28 29 30 31 32 33 34 35 36 37 38 39 40 41 42 43 44 45 46 47 48 49 50
000
NZUS99 KSGF 250107
HRRSGF

HOURLY WEATHER
NATIONAL WEATHER SERVICE SPRINGFIELD MO
800 PM CDT TUE APR 24 2018

......SGF CWA......

CITY           SKY/WX    TMP DP  RH WIND       PRES   REMARKS
SPRINGFIELD    CLEAR     66  38  35 N8        30.05R
JOPLIN         CLOUDY    70  37  29 NE6       30.06R
WEST PLAINS    CLEAR     65  46  50 N6        30.04R
ROLLA          PTCLDY    64  48  56 CALM      30.03R
OSAGE BEACH    PTCLDY    69  44  40 CALM      30.03S
BRANSON        PTCLDY    68  39  34 NW6       30.06R

......SURROUNDING SGF CWA......

CITY           SKY/WX    TMP DP  RH WIND       PRES   REMARKS
CHANUTE        PTCLDY    70  37  29 N5        30.07R
PARSONS        CLEAR     70  37  29 N3        30.06S
COFFEYVILLE    CLEAR     70  43  37 N5        30.05S
EMPORIA        CLOUDY    59  45  59 NW12G21   30.13R
GROVE OK       CLEAR     72  36  26 CALM      30.06S
ROGERS AR      CLEAR     67  39  35 N6        30.07R
SILOAM SPRINGS CLEAR     65  42  43 NW6       30.07R
HARRISON AR    CLEAR     68  39  34 NW6       30.05R
NEAR YELLVILLE CLEAR     71  44  37 N3        30.03R

......KANSAS AND MISSOURI......

CITY           SKY/WX    TMP DP  RH WIND       PRES   REMARKS
KANSAS CTY INT CLOUDY    65  43  44 NW18G31   30.10R
DOWNTOWN KC    CLOUDY    69  43  38 NW21G33   30.05R
COLUMBIA       PTCLDY    67  38  34 N7        30.02R
SEDALIA        CLEAR     68  37  32 N10       30.04R
ST JOSEPH      CLOUDY    64  46  52 NW30G41   30.10R
ST LOUIS       MOCLDY    67  48  50 CALM      29.98S
SPIRIT OF STL  PTCLDY    61  52  72 CALM      29.98R
KIRKSVILLE     MOCLDY    66  34  30 NW6       30.04R
WICHITA        CLOUDY    59  48  67 N22       30.15R
TOPEKA         CLOUDY    61  47  59 NW21G35   30.12R
OLATHE         MOCLDY    67  43  41 NW17G30   30.08R

......TENNESSEE......

CITY           SKY/WX    TMP DP  RH WIND       PRES   REMARKS
MEMPHIS        MOCLDY    63  56  78 N5        30.00R
NASHVILLE      CLOUDY    60  53  77 NW13      29.94R

......ARKANSAS.......

CITY           SKY/WX    TMP DP  RH WIND       PRES   REMARKS
FAYETTEVILLE   CLEAR     69  37  30 N5        30.05R
FT SMITH       CLEAR     74  39  28 N7        30.01R
LITTLE ROCK    PTCLDY    66  58  75 E6        29.99R

......OKLAHOMA.......

CITY           SKY/WX    TMP DP  RH WIND       PRES   REMARKS
TULSA          PTCLDY    72  39  30 CALM      30.03S
PONCA CITY     CLOUDY    65  47  52 N16       30.11R
MCALESTER      PTCLDY    72  44  36 NE3       30.04S
OKLAHOMA CITY  CLOUDY    72  43  35 N15       30.07R

......IOWA............

CITY           SKY/WX    TMP DP  RH WIND       PRES   REMARKS
DES MOINES     CLOUDY    65  43  44 N17       30.09R
QUAD CITIES    FAIR      69  31  24 N5        29.98R

......ILLINOIS........

CITY           SKY/WX    TMP DP  RH WIND       PRES   REMARKS
QUINCY         PTCLDY    62  31  31 N8        29.99S
CHICAGO        FAIR      56  46  69 E9        29.99R




USA.gov is the U.S. government's official web portal to all federal, state and local government web resources and services.